Погода в Малоязе

Россия / Республика Башкортостан     55°10′47″N   58°09′21″E
темп.,
°C
ветер,
м/с
пор.,
м/с
влажн.,
%
обл.,
%
осадки,
мм/ч
давл.,
гПа
погр.,
м
23 октября, сб
сб2323:00+7юз9178098 0.0 1003920
02:00+7зюз91787100 0.1 1004825
05:00+8зюз81588100 0.1 1005873
08:00+8зюз81588100 0.0 1005984
11:00+8зюз91582100 0.0 10071148
14:00+10зюз9177226 0.1 10091603
17:00+10зюз815650 0.1 10101290
20:00+8зюз613715 0.0 1011630
24 октября, вс
вс2423:00+7зюз49795 0.0 1013256
02:00+5юз38905 0.0 1013179
05:00+5ююз369393 0.0 1013147
08:00+6ююз1193100 0.5 101111
11:00+6вюв2695100 2.5 1007247
14:00+8юз61493100 3.6 10051175
17:00+5з71387100 4.0 10091068
20:00+5зюз6128496 0.1 1011981
25 октября, пн
пн2523:00+3зюз5128253 0.2 1013527
02:00+2зюз488422 0.0 1013257
05:00+1юз3590100 0.0 1014125
08:00+1юз2393100 0.0 101478
11:00+3ююз2582100 0.0 1013310
14:00+3юз4893100 0.1 1012638
17:00+1з3796100 0.3 1012364
20:00+1з3892100 0.0 1012552
26 октября, вт
вт2623:00−2ссз71395100 2.2 1014755
02:00−3сз5108271 0.4 1017665
05:00−3сз71075100 0.4 1020966
08:00−4зсз5108176 0.0 1022666
11:00−2з686889 0.0 1023909
14:000з69559 0.0 10221091
17:000зюз6106583 0.0 10221108
20:00−1юз6138378 0.0 1022809
27 октября, ср
ср2723:00−1юз7148463 0.0 1022752
02:00−1юз7148660 0.0 1021663
05:00−1юз7148681 0.0 1021643
08:00−1юз7147667 0.0 1021620
11:000юз7137153 0.0 1021698
14:00+2юз7136853 0.0 1020811
17:00+2юз71371100 0.0 1019741
20:00+1юз7157074 0.0 1019640